Location: Nairn
(57.5833°N, 3.8667°W)
Time: 22:19:53
(UTC+00:00)

S-56A Canister/Altair - Pass Details

Date: 10 October 2022
Orbit: 638 x 2494 km, 38.9° (Epoch: 05 December)

Event Time Altitude Azimuth Distance (km) Brightness Sun altitude
Exits shadow 01:56:27 11° 136° (SE) 3,466 10.7 -34.4°
Drops below altitude 10° 01:56:49 10° 134° (SE) 3,540 10.8 -34.4°
Sets 01:59:53 0° 123° (ESE) 4,249 11.4 -34.1°
